Location: Unspecified
(51.5147°N, 7.4673°E)
Time: 04:03:26
(UTC+01:00)

Explorer 7 - Pass Details

Date: 20 February 2026
Orbit: 430 x 542 km, 50.2° (Epoch: 5 March)

Event Time Altitude Azimuth Distance (km) Brightness Sun altitude
Rises 18:15:28 0° 275° (W) 2,479 12.0 -4.0°
Reaches altitude 10° 18:17:35 10° 272° (W) 1,623 10.9 -4.4°
Maximum altitude 18:21:14 65° 191° (S) 531 6.9 -4.9°
Drops below altitude 10° 18:25:01 10° 109° (ESE) 1,689 8.8 -5.5°
Enters shadow 18:26:13 - 107° (ESE) 2,173 9.3 -5.7°
Sets 18:27:15 0° 106° (ESE) 2,592 - -5.8°
